Flag for Poland Weather past 2 weeks in Kalisz, Poland

Now
59 °F

Overcast.


Feels Like: 60 °F
Forecast: 55 / 74 °F
Wind: 3 mph from Southeast

Location: Kalisz

Current Time: Aug 23, 2014 at 12:19:30 AM

Latest Report: Aug 22, 2014 at 11:00 PM


Visibility: 19 mi

Pressure: 29.94 "Hg

Humidity: 77%

Dew point: 52 °F

Location of KaliszLocation

Historic Weather in Kalisz — Graph

°F

Kalisz temperature yesterday

Maximum temperature yesterday: 71 °F (at 2:00 PM)
Minimum temperature yesterday: 47 °F (at 6:00 AM)
Average temperature yesterday: 60 °F

Past Weeks' High & Low Weather Summary

 TemperatureHumidityPressure
High87 °F (Aug 9, 6:00 PM)100% (Aug 12, 5:00 AM)30.05 "Hg (Aug 12, 5:00 AM)
Low47 °F (Aug 22, 6:00 AM)29% (Aug 22, 2:00 PM)29.61 "Hg (Aug 14, 2:00 AM)
Average64 °F73%29.89 "Hg
* Reported Aug 7 11:00 PM — Aug 22 11:00 PM, Kalisz, Weather by CustomWeather, © 2014

Note: Actual official high and low records may vary slightly from our data, if they occured in-between our weather recording intervals... More about our weather records

Advertising

Kalisz weather history for previous 24 hours

 ConditionsComfort  
Time TempWeatherWind HumidityBarometerVisibility
11:00 PM
Aug 22
59 °FOvercast.3 mph77%29.94 "Hg19 mi
10:00 PM60 °FPassing clouds.3 mph72%29.94 "Hg12 mi
9:00 PM62 °FOvercast.2 mph66%29.94 "Hg12 mi
8:00 PM65 °FPassing clouds.2 mph56%29.93 "Hg16 mi
7:00 PM67 °FOvercast.1 mph51%29.93 "Hg25 mi
6:00 PM68 °FPartly sunny.1 mph46%29.94 "Hg22 mi
5:00 PM69 °FPartly sunny.2 mph48%29.95 "Hg22 mi
4:00 PM69 °FOvercast.3 mph38%29.96 "Hg31 mi
3:00 PM71 °FOvercast.6 mph37%29.97 "Hg22 mi
2:00 PM71 °FPartly sunny.6 mph29%29.98 "Hg22 mi
1:00 PM70 °FPartly sunny.5 mph42%29.99 "Hg25 mi
12:00 PM69 °FScattered clouds.5 mph47%30.00 "Hg22 mi
11:00 AM65 °FScattered clouds.5 mph66%30.01 "Hg12 mi
10:00 AM59 °FPartly sunny.3 mph79%30.03 "Hg10 mi
9:00 AM53 °FFog.3 mph92%30.03 "Hg6 mi
8:00 AM51 °FFog.2 mph94%30.03 "Hg5 mi
7:00 AM48 °FFog.3 mph98%30.04 "Hg4 mi
6:00 AM47 °FFog.2 mph98%30.04 "Hg3 mi
5:00 AM48 °FFog.2 mph97%30.03 "Hg3 mi
4:00 AM48 °FFog.2 mph96%30.04 "Hg5 mi
3:00 AM50 °FClear.2 mph93%30.05 "Hg7 mi
2:00 AM51 °FClear.2 mph87%30.05 "Hg11 mi
1:00 AM52 °FPassing clouds.2 mph87%30.05 "Hg9 mi
12:00 AM54 °FPassing clouds.2 mph84%30.05 "Hg9 mi
Weather by CustomWeather, © 2014

See weather overviewHow to use our weather pages